Regional Weather Roundup
Issued by NWS Little Rock, AR

Home | Current Version | Previous Version | Text Only | Print | Product List | Glossary On
Versions: 1 2 3 4 5 6 7 8 9 10 11 12 13 14 15 16 17 18 19 20 21 22 23 24 25 26 27 28 29 30 31
000
ASUS44 KLZK 281705
RWRLZK

WEATHER ROUNDUP FOR ARKANSAS
NATIONAL WEATHER SERVICE LITTLE ROCK AR
1200 PM CDT SUN MAY 28 2017

NOTE: "FAIR" INDICATES FEW OR NO CLOUDS BELOW 12,000 FEET WITH NO
SIGNIFICANT WEATHER AND/OR OBSTRUCTIONS TO VISIBILITY.

ARZ001-003-010-029-281800-
NORTHWEST ARKANSAS

CITY           SKY/WX    TMP DP  RH WIND       PRES   REMARKS
FAYETTEVILLE   PTSUNNY   74  65  73 NW8       29.99R
FORT SMITH     CLOUDY    77  65  66 VRB7      29.98R
HARRISON       MOSUNNY   74  66  76 W8        29.96R
BENTONVILLE    MOSUNNY   72  61  68 NW8       30.01R
ROGERS         MOSUNNY   72  61  68 N8        30.01R
SILOAM SPGS    PTSUNNY   73  61  64 N10       30.01R
HIGHFILL       MOSUNNY   75  62  64 NW9       30.01R
SPRINGDALE     PTSUNNY   73  63  68 NW6G15    30.01R
$$

ARZ004-005-016-281800-
NORTH CENTRAL ARKANSAS

CITY           SKY/WX    TMP DP  RH WIND       PRES   REMARKS
BATESVILLE     CLOUDY    73  64  73 W14G20    29.92R
FLIPPIN        CLOUDY    73  63  68 W9        29.90S
MTN HOME       PTSUNNY   71  66  84 NW8       29.92S
$$

ARZ040-041-281800-
WEST CENTRAL ARKANSAS

CITY           SKY/WX    TMP DP  RH WIND       PRES   REMARKS
MENA           CLOUDY    73  72  94 SW12G17   30.01R
MOUNT IDA      CLOUDY    76  64  66 VRB5      29.96R
$$

ARZ009-017-025-026-028-281800-
NORTHEAST ARKANSAS

CITY           SKY/WX    TMP DP  RH WIND       PRES   REMARKS
JONESBORO      CLOUDY    72  64  76 SW9       29.90S
NEWPORT        CLOUDY    74  65  73 W18G25    29.91R
WALNUT RIDGE   CLOUDY    70  63  78 W8        29.92R
BLYTHEVILLE    CLOUDY    72  65  78 SW9       29.91S
$$

ARZ022-023-033-042-044-281800-
CENTRAL ARKANSAS

CITY           SKY/WX    TMP DP  RH WIND       PRES   REMARKS
LITTLE ROCK    PTSUNNY   75  67  76 W14G28    29.94R
N LITTLE ROCK    N/A     73  66  79 W7        29.93R
JACKSONVILLE   CLOUDY    75  67  76 W13G21    29.93S
CONWAY           N/A     77  66  69 W17G25    29.93S
SEARCY         CLOUDY    75  67  76 W10G17    29.94S
HOT SPRINGS    MOSUNNY   77  67  71 SW12G18   29.96S
RUSSELLVILLE   CLOUDY    73  65  75 W10       29.96R
CLINTON        CLOUDY    75  66  73 VRB8G15   29.93S
$$

ARZ036-281800-
EAST ARKANSAS

CITY           SKY/WX    TMP DP  RH WIND       PRES   REMARKS
WEST MEMPHIS   CLOUDY    72  67  84 W7        29.89S
$$

ARZ050-053-066-070-073-281800-
SOUTHWEST ARKANSAS

CITY           SKY/WX    TMP DP  RH WIND       PRES   REMARKS
ARKADELPHIA    PTSUNNY   76  68  76 SW13      29.96S
CAMDEN         CLOUDY    73  64  73 SW7       29.97S
TEXARKANA      CLOUDY    73  66  78 SE5       29.98R
EL DORADO      CLOUDY    72  67  84 S8        29.97F
DE QUEEN       CLOUDY    74  68  81 SW8       29.97S
$$

ARZ056-057-069-281800-
SOUTHEAST ARKANSAS

CITY           SKY/WX    TMP DP  RH WIND       PRES   REMARKS
PINE BLUFF     PTSUNNY   74  66  76 W16       29.94
STUTTGART      MOSUNNY   73  57  56 W26       29.93R
MONTICELLO     CLOUDY    70  64  81 W12G18    29.95R

$$






USA.gov is the U.S. government's official web portal to all federal, state and local government web resources and services.